contact:dominique.lefevre@mio.osupytheas.fr, maurice.libes@osupytheas.fr, didier.mallarino@osupytheas.fr
Project:EMSO http://www.emso-fr.org/EMSO-France
Depth: 2436.0 m
Title:EMSO Ligure Ouest : Data MII capteur AQUADOPP
Date,Latitude,Longitude,X_East,Y_North,Z_Up,Amplitude_X,Amplitude_Y,Amplitude_Z,Batterie,SoundSpeed,Heading,Pitch,Roll,Pressure,TIS,Speed,Direction
, degrees North, degrees East, m.s-1, m.s-1,m.s-1, 1, 1, 1, Volt, m.s-1, degree, degree, degree, dbar, degree_C, m.s-1, degree
2020-05-07T00:04:03,42.805,6.029,-0.037,0.011,-0.073,101.0,104.0,100.0,13.3,1505.3,324.7,-0.7,1.8,2470.225,13.31,0.038,286.6
2020-05-07T00:07:03,42.805,6.029,-0.024,0.02,-0.037,103.0,105.0,99.0,13.4,1505.3,327.1,-0.7,1.9,2470.232,13.31,0.031,309.8
2020-05-07T00:10:03,42.805,6.029,-0.032,0.012,-0.034,101.0,104.0,99.0,13.4,1505.3,327.0,-0.7,1.8,2470.228,13.32,0.034,290.6
2020-05-07T00:13:03,42.805,6.029,-0.047,-0.004,-0.06,101.0,104.0,99.0,13.4,1505.3,327.9,-0.7,1.8,2470.238,13.32,0.047,265.1
2020-05-07T00:16:03,42.805,6.029,-0.051,0.01,-0.07,102.0,105.0,100.0,13.3,1505.3,325.8,-0.7,1.8,2470.222,13.32,0.051,281.1
2020-05-07T00:19:03,42.805,6.029,-0.014,0.019,-0.034,103.0,103.0,99.0,13.4,1505.3,328.3,-0.7,1.8,2470.254,13.32,0.023,323.6
2020-05-07T00:22:03,42.805,6.029,-0.017,0.014,-0.025,101.0,105.0,99.0,13.4,1505.3,323.0,-0.7,1.9,2470.224,13.32,0.022,309.5
2020-05-07T00:25:03,42.805,6.029,-0.011,0.005,-0.012,101.0,105.0,100.0,13.4,1505.3,326.7,-0.7,1.8,2470.196,13.32,0.012,294.4
2020-05-07T00:28:03,42.805,6.029,-0.046,0.009,-0.042,100.0,104.0,99.0,13.4,1505.3,325.7,-0.7,1.8,2470.221,13.32,0.046,281.1
2020-05-07T00:31:03,42.805,6.029,-0.022,-0.002,-0.072,99.0,104.0,100.0,13.3,1505.3,327.5,-0.7,1.8,2470.162,13.32,0.022,264.8
2020-05-07T00:34:03,42.805,6.029,-0.056,0.023,-0.061,101.0,104.0,99.0,13.4,1505.3,327.2,-0.7,1.8,2470.216,13.32,0.06,292.3
2020-05-07T00:37:03,42.805,6.029,-0.052,0.004,-0.059,100.0,104.0,99.0,13.3,1505.3,324.6,-0.7,1.8,2470.234,13.32,0.052,274.4
2020-05-07T00:40:03,42.805,6.029,-0.025,0.028,-0.034,100.0,104.0,99.0,13.4,1505.3,323.5,-0.7,1.9,2470.241,13.32,0.037,318.2
2020-05-07T00:43:03,42.805,6.029,-0.058,0.023,-0.08,102.0,104.0,98.0,13.4,1505.3,326.9,-0.7,1.8,2470.191,13.32,0.062,291.6
2020-05-07T00:46:03,42.805,6.029,-0.02,0.007,-0.025,102.0,104.0,99.0,13.3,1505.3,328.4,-0.7,1.8,2470.192,13.32,0.021,289.3
2020-05-07T00:49:03,42.805,6.029,-0.032,0.027,-0.037,100.0,103.0,99.0,13.4,1505.3,325.9,-0.7,1.9,2470.172,13.32,0.041,310.2
2020-05-07T00:52:03,42.805,6.029,-0.047,-0.008,-0.062,101.0,104.0,99.0,13.3,1505.3,323.4,-0.7,1.9,2470.204,13.33,0.047,260.3
2020-05-07T00:55:03,42.805,6.029,-0.03,0.023,-0.029,101.0,104.0,99.0,13.4,1505.3,324.2,-0.7,1.9,2470.165,13.32,0.037,307.5
2020-05-07T00:58:03,42.805,6.029,-0.011,0.023,0.004,100.0,104.0,99.0,13.4,1505.3,326.0,-0.7,1.8,2470.188,13.32,0.025,334.4
2020-05-07T01:04:03,42.805,6.029,-0.042,0.009,-0.042,102.0,106.0,101.0,13.3,1505.3,326.5,-0.7,1.8,2470.279,13.31,0.042,282.1
2020-05-07T01:07:04,42.805,6.029,-0.013,0.017,-0.022,100.0,104.0,100.0,13.4,1505.3,324.4,-0.7,1.8,2470.2,13.31,0.021,322.6
2020-05-07T01:10:03,42.805,6.029,-0.027,0.009,-0.037,101.0,104.0,99.0,13.3,1505.3,325.9,-0.7,1.8,2470.226,13.32,0.028,288.4
2020-05-07T01:13:03,42.805,6.029,-0.014,0.015,-0.03,100.0,105.0,100.0,13.4,1505.3,324.1,-0.7,1.8,2470.181,13.32,0.02,317.0
2020-05-07T01:16:03,42.805,6.029,-0.02,0.017,-0.065,101.0,102.0,99.0,13.4,1505.3,326.4,-0.7,1.8,2470.202,13.32,0.026,310.4
2020-05-07T01:19:03,42.805,6.029,-0.036,0.003,-0.034,100.0,105.0,101.0,13.4,1505.3,325.5,-0.7,1.8,2470.221,13.32,0.036,274.8
2020-05-07T01:22:03,42.805,6.029,-0.002,0.036,-0.009,101.0,104.0,99.0,13.4,1505.3,323.5,-0.7,1.9,2470.19,13.32,0.036,356.8
2020-05-07T01:25:03,42.805,6.029,-0.042,0.011,-0.059,101.0,104.0,99.0,13.3,1505.3,326.0,-0.7,1.9,2470.182,13.32,0.043,284.7
2020-05-07T01:28:03,42.805,6.029,-0.026,-0.007,-0.042,103.0,105.0,99.0,13.3,1505.3,324.3,-0.7,1.8,2470.222,13.32,0.026,254.9
2020-05-07T01:31:03,42.805,6.029,-0.037,0.014,-0.046,101.0,104.0,99.0,13.4,1505.3,328.2,-0.7,1.9,2470.229,13.33,0.039,290.7
2020-05-07T01:34:03,42.805,6.029,-0.003,0.004,-0.035,99.0,104.0,100.0,13.3,1505.3,327.7,-0.7,1.8,2470.196,13.32,0.005,323.1
2020-05-07T01:37:03,42.805,6.029,-0.041,0.011,-0.021,100.0,103.0,99.0,13.3,1505.3,328.3,-0.7,1.8,2470.169,13.32,0.042,285.0
2020-05-07T01:40:03,42.805,6.029,-0.04,0.011,-0.041,100.0,103.0,99.0,13.4,1505.3,327.1,-0.7,1.8,2470.172,13.32,0.041,285.4
2020-05-07T01:43:03,42.805,6.029,-0.024,0.022,-0.015,102.0,102.0,99.0,13.4,1505.3,325.0,-0.7,1.9,2470.149,13.32,0.032,312.5
2020-05-07T01:46:03,42.805,6.029,-0.009,0.025,-0.034,100.0,104.0,101.0,13.4,1505.3,323.2,-0.7,1.9,2470.167,13.32,0.026,340.2
2020-05-07T01:49:03,42.805,6.029,-0.034,0.027,-0.032,101.0,103.0,100.0,13.3,1505.3,328.7,-0.7,1.8,2470.174,13.32,0.043,308.5
2020-05-07T01:52:03,42.805,6.029,-0.037,0.007,-0.034,102.0,103.0,100.0,13.4,1505.3,324.7,-0.7,1.8,2470.153,13.32,0.037,280.7
2020-05-07T01:55:03,42.805,6.029,-0.006,0.003,-0.009,102.0,104.0,98.0,13.4,1505.3,323.4,-0.7,1.8,2470.229,13.32,0.006,296.6
2020-05-07T01:58:03,42.805,6.029,-0.003,0.007,0.008,100.0,103.0,99.0,13.3,1505.3,328.1,-0.7,1.9,2470.172,13.32,0.007,336.8
2020-05-07T02:04:03,42.805,6.029,-0.025,0.002,-0.032,100.0,103.0,98.0,13.4,1505.2,323.4,-0.8,1.8,2470.22,13.3,0.025,274.6
2020-05-07T02:07:03,42.805,6.029,-0.035,0.013,-0.034,100.0,105.0,98.0,13.4,1505.3,325.9,-0.7,1.9,2470.225,13.31,0.037,290.4
2020-05-07T02:10:03,42.805,6.029,-0.035,0.008,-0.055,101.0,103.0,100.0,13.3,1505.3,327.8,-0.7,1.8,2470.192,13.32,0.035,282.9
2020-05-07T02:13:03,42.805,6.029,-0.014,0.013,-0.057,101.0,104.0,99.0,13.4,1505.3,325.2,-0.7,1.9,2470.166,13.32,0.019,312.9
2020-05-07T02:16:03,42.805,6.029,-0.043,0.013,-0.034,103.0,103.0,99.0,13.4,1505.3,323.6,-0.7,1.8,2470.156,13.32,0.044,286.8
2020-05-07T02:19:03,42.805,6.029,-0.037,0.014,-0.025,101.0,105.0,99.0,13.4,1505.3,327.8,-0.7,1.8,2470.237,13.32,0.039,290.7
2020-05-07T02:22:03,42.805,6.029,-0.05,0.015,-0.039,101.0,103.0,99.0,13.4,1505.3,324.6,-0.7,1.9,2470.22,13.32,0.052,286.7
2020-05-07T02:25:03,42.805,6.029,-0.02,0.019,-0.031,101.0,103.0,100.0,13.4,1505.3,323.4,-0.7,1.8,2470.189,13.32,0.027,313.5
2020-05-07T02:28:03,42.805,6.029,-0.042,0.007,-0.026,102.0,105.0,99.0,13.4,1505.3,326.8,-0.7,1.8,2470.214,13.32,0.042,279.5
2020-05-07T02:31:03,42.805,6.029,-0.029,0.019,-0.021,102.0,105.0,99.0,13.4,1505.3,326.2,-0.7,1.8,2470.211,13.33,0.034,303.2
2020-05-07T02:34:03,42.805,6.029,-0.049,0.025,-0.039,100.0,103.0,100.0,13.4,1505.3,325.2,-0.8,1.8,2470.213,13.32,0.055,297.0
2020-05-07T02:37:03,42.805,6.029,-0.023,0.012,-0.037,101.0,104.0,99.0,13.4,1505.3,324.8,-0.7,1.8,2470.168,13.32,0.025,297.6
2020-05-07T02:40:03,42.805,6.029,-0.062,0.002,-0.06,101.0,104.0,99.0,13.4,1505.3,325.3,-0.7,1.8,2470.195,13.32,0.062,271.8
2020-05-07T02:43:03,42.805,6.029,-0.039,0.006,-0.035,101.0,103.0,99.0,13.4,1505.3,324.7,-0.7,1.8,2470.234,13.32,0.039,278.7
2020-05-07T02:46:03,42.805,6.029,-0.01,0.017,-0.019,101.0,103.0,100.0,13.4,1505.3,324.6,-0.7,1.8,2470.232,13.32,0.019,329.5
2020-05-07T02:49:03,42.805,6.029,-0.038,0.005,-0.018,101.0,105.0,98.0,13.3,1505.3,323.3,-0.7,1.9,2470.262,13.33,0.038,277.5
2020-05-07T02:52:03,42.805,6.029,-0.039,0.017,-0.015,101.0,102.0,99.0,13.4,1505.3,325.3,-0.7,1.8,2470.215,13.32,0.042,293.5
2020-05-07T02:55:03,42.805,6.029,-0.044,0.007,-0.062,101.0,105.0,99.0,13.4,1505.3,326.3,-0.7,1.8,2470.2,13.32,0.044,279.0
2020-05-07T02:58:03,42.805,6.029,-0.029,0.0,-0.047,101.0,105.0,99.0,13.4,1505.3,325.8,-0.7,1.8,2470.189,13.32,0.028,270.0
2020-05-07T03:04:03,42.805,6.029,-0.04,0.022,-0.056,103.0,104.0,100.0,13.4,1505.3,324.6,-0.7,1.8,2470.208,13.31,0.045,298.8
2020-05-07T03:07:03,42.805,6.029,-0.017,0.006,-0.044,102.0,105.0,99.0,13.4,1505.3,324.8,-0.7,1.8,2470.264,13.31,0.018,289.4
2020-05-07T03:10:03,42.805,6.029,-0.029,0.016,-0.045,101.0,104.0,99.0,13.4,1505.3,326.2,-0.7,1.8,2470.235,13.32,0.033,298.9
2020-05-07T03:13:03,42.805,6.029,-0.025,0.003,-0.001,101.0,103.0,99.0,13.4,1505.3,322.9,-0.7,1.8,2470.224,13.32,0.025,276.8
2020-05-07T03:16:03,42.805,6.029,-0.071,0.027,-0.07,101.0,104.0,99.0,13.4,1505.3,327.2,-0.7,1.8,2470.278,13.32,0.075,290.8
2020-05-07T03:19:03,42.805,6.029,-0.058,0.016,-0.035,101.0,105.0,99.0,13.3,1505.3,324.2,-0.7,1.8,2470.243,13.32,0.06,285.4
2020-05-07T03:22:03,42.805,6.029,-0.034,-0.009,-0.024,102.0,102.0,100.0,13.3,1505.3,325.0,-0.7,1.8,2470.234,13.32,0.035,255.2
2020-05-07T03:25:03,42.805,6.029,-0.05,-0.011,-0.083,101.0,104.0,99.0,13.3,1505.3,327.9,-0.7,1.8,2470.259,13.32,0.051,257.6
2020-05-07T03:28:03,42.805,6.029,-0.045,0.017,-0.045,101.0,104.0,100.0,13.3,1505.3,326.5,-0.7,1.8,2470.267,13.32,0.048,290.7
2020-05-07T03:31:03,42.805,6.029,-0.039,0.037,-0.02,100.0,104.0,99.0,13.3,1505.3,323.4,-0.7,1.8,2470.241,13.32,0.053,313.5
2020-05-07T03:34:03,42.805,6.029,-0.048,0.013,-0.059,100.0,103.0,99.0,13.4,1505.3,324.1,-0.7,1.8,2470.284,13.32,0.049,285.2
2020-05-07T03:37:03,42.805,6.029,-0.033,0.015,-0.04,100.0,104.0,99.0,13.3,1505.3,325.2,-0.7,1.8,2470.244,13.32,0.036,294.4
2020-05-07T03:40:03,42.805,6.029,-0.015,0.013,-0.002,99.0,104.0,99.0,13.3,1505.3,326.2,-0.8,1.8,2470.26,13.32,0.019,310.9
2020-05-07T03:43:03,42.805,6.029,-0.042,0.017,-0.054,100.0,103.0,99.0,13.3,1505.3,326.6,-0.7,1.8,2470.278,13.32,0.045,292.0
2020-05-07T03:46:03,42.805,6.029,-0.061,0.0,-0.037,101.0,103.0,99.0,13.4,1505.3,323.0,-0.7,1.8,2470.247,13.32,0.06,270.0
2020-05-07T03:49:03,42.805,6.029,-0.028,0.0,-0.038,102.0,102.0,100.0,13.4,1505.3,325.8,-0.7,1.8,2470.266,13.32,0.028,270.0
2020-05-07T03:52:03,42.805,6.029,-0.06,0.005,-0.011,100.0,103.0,100.0,13.4,1505.3,327.2,-0.7,1.8,2470.256,13.32,0.06,274.8
2020-05-07T03:55:03,42.805,6.029,-0.03,0.025,-0.007,101.0,102.0,99.0,13.3,1505.3,326.9,-0.7,1.9,2470.284,13.32,0.039,309.8
2020-05-07T03:58:03,42.805,6.029,-0.035,0.016,-0.039,100.0,104.0,99.0,13.4,1505.3,324.2,-0.7,1.9,2470.282,13.32,0.038,294.6
2020-05-07T04:04:03,42.805,6.029,-0.032,0.014,-0.022,101.0,105.0,98.0,13.4,1505.2,327.0,-0.7,1.8,2470.334,13.3,0.034,293.6
2020-05-07T04:07:03,42.805,6.029,-0.017,0.012,-0.018,101.0,103.0,100.0,13.4,1505.3,327.6,-0.7,1.8,2470.332,13.31,0.02,305.2
2020-05-07T04:10:03,42.805,6.029,-0.053,-0.002,-0.06,102.0,104.0,99.0,13.4,1505.3,327.9,-0.7,1.8,2470.343,13.32,0.053,267.8
2020-05-07T04:13:03,42.805,6.029,-0.032,0.016,-0.025,101.0,105.0,100.0,13.4,1505.3,326.5,-0.7,1.8,2470.301,13.32,0.035,296.6
2020-05-07T04:16:03,42.805,6.029,-0.035,-0.006,-0.022,101.0,104.0,100.0,13.4,1505.3,325.8,-0.7,1.8,2470.326,13.32,0.035,260.3
2020-05-07T04:19:03,42.805,6.029,-0.032,0.011,-0.066,100.0,105.0,99.0,13.3,1505.3,326.4,-0.7,1.8,2470.334,13.32,0.033,289.0
2020-05-07T04:22:03,42.805,6.029,-0.037,0.027,-0.009,101.0,104.0,99.0,13.4,1505.3,327.6,-0.7,1.9,2470.285,13.32,0.045,306.1
2020-05-07T04:25:03,42.805,6.029,-0.027,0.008,-0.032,104.0,104.0,100.0,13.3,1505.3,324.4,-0.7,1.8,2470.317,13.32,0.028,286.5
2020-05-07T04:28:03,42.805,6.029,-0.036,-0.009,-0.042,102.0,103.0,99.0,13.3,1505.3,325.2,-0.7,1.8,2470.325,13.32,0.037,256.0
2020-05-07T04:34:03,42.805,6.029,-0.041,0.026,-0.03,101.0,104.0,100.0,13.4,1505.2,324.7,-0.8,1.8,2470.399,13.3,0.048,302.4
2020-05-07T04:37:03,42.805,6.029,-0.036,0.01,-0.054,100.0,104.0,101.0,13.3,1505.3,325.9,-0.7,1.8,2470.348,13.31,0.037,285.5
2020-05-07T04:40:03,42.805,6.029,-0.056,0.015,-0.061,100.0,103.0,100.0,13.4,1505.3,324.2,-0.7,1.9,2470.373,13.32,0.057,285.0
2020-05-07T04:43:03,42.805,6.029,-0.025,0.003,-0.052,102.0,104.0,100.0,13.4,1505.3,324.2,-0.7,1.8,2470.36,13.32,0.025,276.8
2020-05-07T04:46:03,42.805,6.029,-0.037,0.0,-0.009,101.0,106.0,99.0,13.3,1505.3,326.0,-0.7,1.8,2470.379,13.32,0.037,270.0
2020-05-07T04:49:03,42.805,6.029,-0.028,0.0,-0.055,101.0,103.0,99.0,13.3,1505.3,325.8,-0.7,1.9,2470.397,13.32,0.028,270.0
2020-05-07T04:52:03,42.805,6.029,-0.062,0.001,-0.067,101.0,103.0,100.0,13.3,1505.3,324.5,-0.7,1.8,2470.333,13.32,0.062,270.9
2020-05-07T04:55:03,42.805,6.029,-0.029,0.007,-0.032,103.0,104.0,100.0,13.4,1505.3,323.2,-0.7,1.8,2470.344,13.32,0.029,283.6
2020-05-07T04:58:03,42.805,6.029,-0.067,0.008,-0.049,100.0,105.0,99.0,13.4,1505.3,324.7,-0.7,1.8,2470.418,13.32,0.067,276.8
2020-05-07T05:04:03,42.805,6.029,-0.025,0.029,-0.007,102.0,104.0,99.0,13.4,1505.2,324.9,-0.7,1.8,2470.396,13.3,0.038,319.2
2020-05-07T05:07:03,42.805,6.029,-0.053,0.001,-0.054,101.0,103.0,99.0,13.3,1505.3,326.3,-0.7,1.8,2470.4,13.31,0.053,271.1
2020-05-07T05:10:03,42.805,6.029,-0.004,0.008,-0.02,101.0,104.0,102.0,13.4,1505.3,324.6,-0.7,1.8,2470.401,13.31,0.008,333.4
2020-05-07T05:13:03,42.805,6.029,-0.039,0.016,-0.01,102.0,104.0,99.0,13.4,1505.3,328.4,-0.7,1.8,2470.399,13.32,0.042,292.3
2020-05-07T05:16:03,42.805,6.029,-0.038,0.027,-0.059,101.0,105.0,98.0,13.4,1505.3,327.8,-0.7,1.8,2470.375,13.32,0.046,305.4
2020-05-07T05:19:03,42.805,6.029,-0.035,0.013,-0.018,101.0,104.0,101.0,13.4,1505.3,328.1,-0.7,1.8,2470.389,13.32,0.037,290.4
2020-05-07T05:22:03,42.805,6.029,-0.031,0.018,-0.041,102.0,104.0,100.0,13.3,1505.3,325.4,-0.8,1.8,2470.365,13.32,0.035,300.1
2020-05-07T05:25:03,42.805,6.029,-0.058,0.015,-0.02,102.0,104.0,100.0,13.3,1505.3,325.6,-0.7,1.8,2470.411,13.32,0.059,284.5
2020-05-07T05:28:03,42.805,6.029,-0.036,0.014,-0.027,102.0,105.0,99.0,13.4,1505.3,326.6,-0.7,1.8,2470.42,13.32,0.038,291.2
2020-05-07T05:31:03,42.805,6.029,-0.043,0.023,-0.013,100.0,104.0,100.0,13.3,1505.3,328.3,-0.7,1.8,2470.38,13.33,0.048,298.1
2020-05-07T05:34:03,42.805,6.029,-0.044,0.013,-0.062,102.0,105.0,100.0,13.4,1505.3,325.9,-0.7,1.9,2470.417,13.32,0.045,286.5
2020-05-07T05:37:03,42.805,6.029,-0.01,0.018,-0.02,100.0,105.0,99.0,13.4,1505.3,323.1,-0.7,1.8,2470.45,13.33,0.02,330.9
2020-05-07T05:43:02,42.805,6.029,-0.06,0.01,-0.03,104.0,104.0,98.0,13.3,1505.3,325.4,-0.8,1.8,2470.443,13.31,0.06,279.5
2020-05-07T05:46:02,42.805,6.029,0.019,0.027,0.018,101.0,104.0,99.0,13.4,1505.3,325.9,-0.7,1.8,2470.404,13.31,0.033,35.1
2020-05-07T05:49:03,42.805,6.029,-0.023,0.009,-0.028,102.0,104.0,100.0,13.3,1505.3,324.9,-0.7,1.8,2470.406,13.32,0.024,291.4
